| time (UTC) | temp F | wind direction | speed knots | gust knots | rain 1hr in | rain 24hr in | rain mn in | humidity % | barometer mb |
| 20260504234933 | 67 | 224 | 4.3 | 9.6 | 0.00 | 0.00 | 0.00 | 50 | 1010.6 |
| 20260504234431 | 67 | 301 | 5.2 | 7.8 | 0.00 | 0.00 | 0.00 | 49 | 1010.5 |
| 20260504233927 | 68 | 190 | 7.0 | 11.3 | 0.00 | 0.00 | 0.00 | 49 | 1010.3 |
| 20260504233423 | 68 | 215 | 5.2 | 13.0 | 0.00 | 0.00 | 0.00 | 47 | 1010.2 |
| 20260504232920 | 68 | 213 | 9.6 | 14.8 | 0.00 | 0.00 | 0.00 | 47 | 1010.3 |
| 20260504232417 | 69 | 133 | 6.1 | 11.3 | 0.00 | 0.00 | 0.00 | 47 | 1010.4 |
| 20260504231914 | 69 | 239 | 3.5 | 9.6 | 0.00 | 0.00 | 0.00 | 48 | 1010.4 |
| 20260504231410 | 69 | 136 | 3.5 | 11.3 | 0.00 | 0.00 | 0.00 | 48 | 1010.5 |
| 20260504230907 | 69 | 237 | 5.2 | 12.2 | 0.00 | 0.00 | 0.00 | 47 | 1010.2 |
| 20260504230404 | 70 | 204 | 7.0 | 9.6 | 0.00 | 0.00 | 0.00 | 46 | 1010.1 |
| 20260504225903 | 70 | 235 | 3.5 | 7.0 | 0.00 | 0.00 | 0.00 | 47 | 1010.1 |
| 20260504225359 | 70 | 261 | 5.2 | 9.6 | 0.00 | 0.00 | 0.00 | 46 | 1010.2 |
| 20260504224857 | 71 | 187 | 3.5 | 8.7 | 0.00 | 0.00 | 0.00 | 46 | 1010.2 |
| 20260504224353 | 72 | 234 | 7.8 | 9.6 | 0.00 | 0.00 | 0.00 | 43 | 1010.4 |
| 20260504223850 | 72 | 279 | 4.3 | 11.3 | 0.00 | 0.00 | 0.00 | 43 | 1010.3 |
| 20260504223345 | 72 | 266 | 7.0 | 13.0 | 0.00 | 0.00 | 0.00 | 42 | 1010.2 |
| 20260504222842 | 73 | 290 | 4.3 | 7.0 | 0.00 | 0.00 | 0.00 | 42 | 1010.3 |
| 20260504222339 | 73 | 271 | 3.5 | 7.0 | 0.00 | 0.00 | 0.00 | 42 | 1010.1 |
| 20260504221837 | 73 | 281 | 7.0 | 9.6 | 0.00 | 0.00 | 0.00 | 41 | 1010.2 |
| 20260504221334 | 73 | 324 | 3.5 | 8.7 | 0.00 | 0.00 | 0.00 | 42 | 1010.3 |
| 20260504220831 | 73 | 262 | 1.7 | 6.1 | 0.00 | 0.00 | 0.00 | 44 | 1010.3 |
| 20260504220327 | 73 | 197 | 6.1 | 13.0 | 0.00 | 0.00 | 0.00 | 41 | 1010.2 |
| 20260504215825 | 73 | 329 | 3.5 | 5.2 | 0.00 | 0.00 | 0.00 | 42 | 1010.0 |
| 20260504215321 | 73 | 267 | 4.3 | 7.0 | 0.00 | 0.00 | 0.00 | 41 | 1010.2 |
| 20260504214817 | 73 | 225 | 2.6 | 9.6 | 0.00 | 0.00 | 0.00 | 41 | 1010.3 |
| 20260504214314 | 73 | 267 | 7.8 | 11.3 | 0.00 | 0.00 | 0.00 | 41 | 1010.5 |
| 20260504213811 | 74 | 255 | 4.3 | 7.8 | 0.00 | 0.00 | 0.00 | 40 | 1010.4 |
| 20260504213307 | 73 | 327 | 3.5 | 11.3 | 0.00 | 0.00 | 0.00 | 41 | 1010.3 |
| 20260504212804 | 73 | 301 | 3.5 | 6.1 | 0.00 | 0.00 | 0.00 | 42 | 1010.4 |
| 20260504212300 | 73 | 236 | 5.2 | 11.3 | 0.00 | 0.00 | 0.00 | 41 | 1010.4 |
| 20260504211758 | 73 | 326 | 2.6 | 7.0 | 0.00 | 0.00 | 0.00 | 41 | 1010.5 |
| 20260504211248 | 74 | 279 | 4.3 | 7.8 | 0.00 | 0.00 | 0.00 | 41 | 1010.5 |
| 20260504210746 | 73 | 324 | 7.8 | 9.6 | 0.00 | 0.00 | 0.00 | 41 | 1010.3 |
| 20260504210243 | 73 | 228 | 2.6 | 6.1 | 0.00 | 0.00 | 0.00 | 43 | 1010.6 |
| 20260504205740 | 74 | 303 | 6.1 | 8.7 | 0.00 | 0.00 | 0.00 | 41 | 1010.6 |
| 20260504205238 | 74 | 314 | 2.6 | 7.0 | 0.00 | 0.00 | 0.00 | 43 | 1010.6 |
| 20260504204736 | 74 | 232 | 3.5 | 7.0 | 0.00 | 0.00 | 0.00 | 42 | 1010.6 |
| 20260504204234 | 74 | 150 | 2.6 | 9.6 | 0.00 | 0.00 | 0.00 | 43 | 1010.7 |
| 20260504203733 | 74 | 297 | 1.7 | 7.0 | 0.00 | 0.00 | 0.00 | 41 | 1010.5 |
| 20260504203230 | 74 | 294 | 5.2 | 7.0 | 0.00 | 0.00 | 0.00 | 43 | 1010.5 |
| 20260504202730 | 74 | 296 | 4.3 | 7.8 | 0.00 | 0.00 | 0.00 | 42 | 1010.6 |
| 20260504202227 | 73 | 320 | 3.5 | 7.8 | 0.00 | 0.00 | 0.00 | 42 | 1010.8 |
| 20260504201724 | 74 | 257 | 3.5 | 7.8 | 0.00 | 0.00 | 0.00 | 41 | 1010.6 |
| 20260504201221 | 73 | 334 | 4.3 | 7.8 | 0.00 | 0.00 | 0.00 | 40 | 1010.9 |
| 20260504200719 | 73 | 317 | 5.2 | 7.0 | 0.00 | 0.00 | 0.00 | 41 | 1010.9 |
| 20260504200215 | 73 | 294 | 5.2 | 9.6 | 0.00 | 0.00 | 0.00 | 42 | 1011.2 |
| 20260504195711 | 72 | 268 | 4.3 | 8.7 | 0.00 | 0.00 | 0.00 | 44 | 1011.2 |
| 20260504195207 | 72 | 197 | 7.0 | 11.3 | 0.00 | 0.00 | 0.00 | 43 | 1011.3 |
| 20260504194704 | 71 | 252 | 4.3 | 8.7 | 0.00 | 0.00 | 0.00 | 43 | 1011.4 |
| 20260504194201 | 72 | 265 | 4.3 | 14.8 | 0.00 | 0.00 | 0.00 | 43 | 1011.3 |
| 20260504193657 | 72 | 243 | 9.6 | 12.2 | 0.00 | 0.00 | 0.00 | 43 | 1011.2 |
| 20260504193155 | 73 | 264 | 5.2 | 7.8 | 0.00 | 0.00 | 0.00 | 42 | 1011.4 |
| 20260504192653 | 72 | 266 | 5.2 | 11.3 | 0.00 | 0.00 | 0.00 | 43 | 1011.4 |
| 20260504192150 | 72 | 259 | 5.2 | 13.0 | 0.00 | 0.00 | 0.00 | 43 | 1011.6 |
| 20260504191649 | 72 | 299 | 3.5 | 12.2 | 0.00 | 0.00 | 0.00 | 44 | 1011.5 |
| 20260504191144 | 72 | 348 | 3.5 | 13.0 | 0.00 | 0.00 | 0.00 | 43 | 1011.8 |
| 20260504190641 | 72 | 330 | 4.3 | 8.7 | 0.00 | 0.00 | 0.00 | 42 | 1011.7 |
| 20260504190138 | 71 | 248 | 5.2 | 13.9 | 0.00 | 0.00 | 0.00 | 44 | 1011.7 |
| 20260504185634 | 72 | 245 | 6.1 | 11.3 | 0.00 | 0.00 | 0.00 | 44 | 1012.0 |
| 20260504185131 | 72 | 228 | 4.3 | 7.8 | 0.00 | 0.00 | 0.00 | 41 | 1012.0 |
| 20260504184626 | 72 | 294 | 4.3 | 7.8 | 0.00 | 0.00 | 0.00 | 41 | 1012.1 |
| 20260504184122 | 71 | 240 | 6.1 | 7.8 | 0.00 | 0.00 | 0.00 | 44 | 1011.9 |
| 20260504183619 | 71 | 208 | 4.3 | 12.2 | 0.00 | 0.00 | 0.00 | 45 | 1011.9 |
| 20260504183117 | 71 | 288 | 3.5 | 7.8 | 0.00 | 0.00 | 0.00 | 42 | 1012.0 |
| 20260504182614 | 71 | 273 | 5.2 | 13.0 | 0.00 | 0.00 | 0.00 | 44 | 1012.2 |
| 20260504182112 | 70 | 237 | 1.7 | 7.8 | 0.00 | 0.00 | 0.00 | 44 | 1012.3 |
| 20260504181609 | 72 | 314 | 7.8 | 9.6 | 0.00 | 0.00 | 0.00 | 44 | 1012.2 |
| 20260504181106 | 71 | 297 | 5.2 | 11.3 | 0.00 | 0.00 | 0.00 | 43 | 1012.4 |
| 20260504180605 | 71 | 290 | 5.2 | 11.3 | 0.00 | 0.00 | 0.00 | 45 | 1012.3 |
| 20260504180104 | 71 | 329 | 3.5 | 7.0 | 0.00 | 0.00 | 0.00 | 42 | 1012.5 |
| 20260504175601 | 71 | 200 | 2.6 | 9.6 | 0.00 | 0.00 | 0.00 | 45 | 1012.2 |
| 20260504175057 | 71 | 330 | 3.5 | 7.8 | 0.00 | 0.00 | 0.00 | 43 | 1012.5 |
| 20260504174555 | 70 | 281 | 5.2 | 12.2 | 0.00 | 0.00 | 0.00 | 46 | 1012.5 |
| 20260504174051 | 71 | 259 | 5.2 | 8.7 | 0.00 | 0.00 | 0.00 | 44 | 1012.6 |
| 20260504173548 | 71 | 239 | 3.5 | 7.8 | 0.00 | 0.00 | 0.00 | 43 | 1012.7 |
| 20260504173046 | 69 | 5 | 3.5 | 6.1 | 0.00 | 0.00 | 0.00 | 45 | 1012.8 |
| 20260504172542 | 70 | 264 | 9.6 | 11.3 | 0.00 | 0.00 | 0.00 | 45 | 1013.0 |
| 20260504172039 | 70 | 320 | 7.8 | 8.7 | 0.00 | 0.00 | 0.00 | 43 | 1012.8 |
| 20260504171536 | 69 | 258 | 6.1 | 7.8 | 0.00 | 0.00 | 0.00 | 43 | 1013.1 |
| 20260504171033 | 69 | 292 | 6.1 | 7.8 | 0.00 | 0.00 | 0.00 | 43 | 1013.3 |
| 20260504170528 | 69 | 295 | 7.8 | 9.6 | 0.00 | 0.00 | 0.00 | 43 | 1013.4 |
| 20260504150912 | 64 | 290 | 5.2 | 8.7 | 0.00 | 0.00 | 0.00 | 48 | 1014.6 |
| 20260504150409 | 63 | 217 | 3.5 | 9.6 | 0.00 | 0.00 | 0.00 | 50 | 1014.8 |
| 20260504140835 | 61 | 273 | 2.6 | 5.2 | 0.00 | 0.00 | 0.00 | 48 | 1015.2 |
| 20260504140331 | 60 | 229 | 2.6 | 3.5 | 0.00 | 0.00 | 0.00 | 51 | 1015.1 |
| 20260504130800 | 56 | 301 | 5.2 | 6.1 | 0.00 | 0.00 | 0.00 | 52 | 1015.3 |
| 20260504130256 | 56 | 237 | 2.6 | 5.2 | 0.00 | 0.00 | 0.00 | 54 | 1015.2 |
| 20260504120220 | 55 | 99 | 0.0 | 1.7 | 0.00 | 0.00 | 0.00 | 59 | 1015.6 |
| 20260504110647 | 46 | 131 | 0.0 | 0.9 | 0.00 | 0.00 | 0.00 | 71 | 1015.7 |
| 20260504110143 | 46 | 154 | 0.0 | 0.0 | 0.00 | 0.00 | 0.00 | 72 | 1015.5 |
| 20260504100609 | 41 | 214 | 1.7 | 1.7 | 0.00 | 0.00 | 0.00 | 78 | 1015.6 |
| 20260504100108 | 41 | 314 | 0.0 | 1.7 | 0.00 | 0.00 | 0.00 | 77 | 1015.5 |
| 20260504082003 | 44 | 313 | 0.0 | 0.9 | 0.00 | 0.00 | 0.00 | 69 | 1015.9 |
| 20260504081500 | 44 | 322 | 0.0 | 0.0 | 0.00 | 0.00 | 0.00 | 68 | 1015.8 |
| 20260504080950 | 45 | 322 | 0.9 | 0.9 | 0.00 | 0.00 | 0.00 | 66 | 1015.6 |
| 20260504080447 | 46 | 342 | 1.7 | 1.7 | 0.00 | 0.00 | 0.00 | 65 | 1015.9 |
| 20260504050253 | 53 | 238 | 2.6 | 5.2 | 0.00 | 0.00 | 0.00 | 50 | 1015.6 |
| 20260504045750 | 52 | 233 | 3.5 | 6.1 | 0.00 | 0.00 | 0.00 | 49 | 1015.7 |
| 20260504045245 | 53 | 273 | 4.3 | 6.1 | 0.00 | 0.00 | 0.00 | 50 | 1015.8 |
| 20260504044743 | 52 | 257 | 3.5 | 6.1 | 0.00 | 0.00 | 0.00 | 50 | 1015.7 |
| 20260504044241 | 52 | 265 | 4.3 | 6.1 | 0.00 | 0.00 | 0.00 | 50 | 1015.6 |
| 20260504043737 | 52 | 231 | 1.7 | 6.1 | 0.00 | 0.00 | 0.00 | 50 | 1015.7 |
| 20260504043234 | 52 | 256 | 2.6 | 5.2 | 0.00 | 0.00 | 0.00 | 50 | 1015.7 |
| 20260504042732 | 52 | 282 | 3.5 | 5.2 | 0.00 | 0.00 | 0.00 | 50 | 1015.5 |
| 20260504042228 | 52 | 243 | 3.5 | 7.0 | 0.00 | 0.00 | 0.00 | 50 | 1015.9 |
| 20260504041724 | 52 | 251 | 3.5 | 7.0 | 0.00 | 0.00 | 0.00 | 50 | 1015.7 |
| 20260504041220 | 52 | 255 | 4.3 | 6.1 | 0.00 | 0.00 | 0.00 | 49 | 1015.6 |
| 20260504040717 | 53 | 244 | 3.5 | 6.1 | 0.00 | 0.00 | 0.00 | 50 | 1015.5 |
| 20260504040214 | 53 | 255 | 4.3 | 6.1 | 0.00 | 0.00 | 0.00 | 49 | 1015.5 |
| 20260504035710 | 53 | 254 | 3.5 | 7.0 | 0.00 | 0.00 | 0.00 | 48 | 1015.4 |
| 20260504035208 | 53 | 266 | 2.6 | 7.0 | 0.00 | 0.00 | 0.00 | 49 | 1015.6 |
| 20260504034705 | 53 | 226 | 5.2 | 6.1 | 0.00 | 0.00 | 0.00 | 48 | 1015.4 |
| 20260504034202 | 53 | 248 | 1.7 | 6.1 | 0.00 | 0.00 | 0.00 | 49 | 1015.4 |
| 20260504033700 | 53 | 229 | 5.2 | 7.0 | 0.00 | 0.00 | 0.00 | 48 | 1015.3 |
| 20260504033157 | 53 | 261 | 3.5 | 7.0 | 0.00 | 0.00 | 0.00 | 49 | 1015.4 |
| 20260504032653 | 53 | 244 | 6.1 | 7.0 | 0.00 | 0.00 | 0.00 | 48 | 1015.3 |
| 20260504032151 | 53 | 208 | 3.5 | 7.0 | 0.00 | 0.00 | 0.00 | 49 | 1015.2 |
| 20260504031648 | 53 | 252 | 4.3 | 6.1 | 0.00 | 0.00 | 0.00 | 49 | 1015.1 |
| 20260504031144 | 53 | 230 | 2.6 | 5.2 | 0.00 | 0.00 | 0.00 | 50 | 1015.2 |
| 20260504030641 | 53 | 242 | 3.5 | 5.2 | 0.00 | 0.00 | 0.00 | 49 | 1015.2 |
| 20260504030138 | 53 | 259 | 2.6 | 5.2 | 0.00 | 0.00 | 0.00 | 49 | 1015.2 |
| 20260504025634 | 53 | 247 | 5.2 | 7.0 | 0.00 | 0.00 | 0.00 | 49 | 1015.2 |
| 20260504025131 | 53 | 221 | 1.7 | 5.2 | 0.00 | 0.00 | 0.00 | 49 | 1015.2 |
| 20260504024628 | 53 | 238 | 2.6 | 6.1 | 0.00 | 0.00 | 0.00 | 48 | 1015.2 |
| 20260504024125 | 53 | 252 | 5.2 | 6.1 | 0.00 | 0.00 | 0.00 | 48 | 1015.2 |
| 20260504023621 | 53 | 245 | 3.5 | 5.2 | 0.00 | 0.00 | 0.00 | 49 | 1015.2 |
| 20260504023118 | 53 | 259 | 3.5 | 7.0 | 0.00 | 0.00 | 0.00 | 49 | 1015.1 |
| 20260504022614 | 53 | 200 | 1.7 | 5.2 | 0.00 | 0.00 | 0.00 | 49 | 1015.1 |
| 20260504022110 | 53 | 253 | 4.3 | 6.1 | 0.00 | 0.00 | 0.00 | 49 | 1015.3 |
| 20260504021608 | 52 | 231 | 2.6 | 5.2 | 0.00 | 0.00 | 0.00 | 49 | 1015.3 |
| 20260504021105 | 52 | 234 | 2.6 | 3.5 | 0.00 | 0.00 | 0.00 | 50 | 1015.4 |
| 20260504020602 | 53 | 245 | 2.6 | 3.5 | 0.00 | 0.00 | 0.00 | 49 | 1015.3 |
| 20260504020058 | 53 | 274 | 3.5 | 5.2 | 0.00 | 0.00 | 0.00 | 49 | 1015.3 |
| 20260504015554 | 53 | 234 | 1.7 | 3.5 | 0.00 | 0.00 | 0.00 | 49 | 1015.2 |
| 20260504015050 | 53 | 235 | 1.7 | 3.5 | 0.00 | 0.00 | 0.00 | 50 | 1015.3 |
| 20260504014547 | 53 | 250 | 3.5 | 5.2 | 0.00 | 0.00 | 0.00 | 49 | 1015.2 |
| 20260504014044 | 53 | 233 | 2.6 | 3.5 | 0.00 | 0.00 | 0.00 | 49 | 1015.1 |
| 20260504013541 | 52 | 235 | 1.7 | 2.6 | 0.00 | 0.00 | 0.00 | 51 | 1015.0 |
| 20260504013038 | 53 | 227 | 2.6 | 3.5 | 0.00 | 0.00 | 0.00 | 50 | 1015.3 |
| 20260504012536 | 53 | 211 | 1.7 | 2.6 | 0.00 | 0.00 | 0.00 | 51 | 1015.1 |
| 20260504012033 | 53 | 227 | 2.6 | 3.5 | 0.00 | 0.00 | 0.00 | 50 | 1015.0 |
| 20260504011530 | 52 | 243 | 1.7 | 3.5 | 0.00 | 0.00 | 0.00 | 51 | 1015.3 |
| 20260504011026 | 52 | 225 | 1.7 | 2.6 | 0.00 | 0.00 | 0.00 | 51 | 1014.9 |
| 20260504010522 | 53 | 243 | 1.7 | 2.6 | 0.00 | 0.00 | 0.00 | 51 | 1015.0 |
| 20260504010018 | 52 | 253 | 2.6 | 3.5 | 0.00 | 0.00 | 0.00 | 50 | 1015.2 |
| 20260504005515 | 52 | 226 | 3.5 | 5.2 | 0.00 | 0.00 | 0.00 | 51 | 1014.9 |
| 20260504005012 | 52 | 248 | 1.7 | 3.5 | 0.00 | 0.00 | 0.00 | 52 | 1015.0 |
| 20260504004510 | 52 | 220 | 1.7 | 2.6 | 0.00 | 0.00 | 0.00 | 52 | 1015.2 |
| 20260504004007 | 52 | 261 | 1.7 | 2.6 | 0.00 | 0.00 | 0.00 | 53 | 1014.9 |
| 20260504003503 | 53 | 262 | 1.7 | 3.5 | 0.00 | 0.00 | 0.00 | 51 | 1014.9 |
| 20260504003000 | 53 | 256 | 3.5 | 3.5 | 0.00 | 0.00 | 0.00 | 51 | 1014.8 |
| 20260504002457 | 53 | 239 | 1.7 | 3.5 | 0.00 | 0.00 | 0.00 | 51 | 1014.6 |
| 20260504001954 | 53 | 258 | 2.6 | 3.5 | 0.00 | 0.00 | 0.00 | 50 | 1014.7 |
| 20260504001451 | 54 | 260 | 2.6 | 3.5 | 0.00 | 0.00 | 0.00 | 50 | 1014.6 |
| 20260504000948 | 54 | 240 | 1.7 | 2.6 | 0.00 | 0.00 | 0.00 | 50 | 1014.4 |
| 20260504000445 | 55 | 261 | 1.7 | 3.5 | 0.00 | 0.00 | 0.00 | 48 | 1014.5 |
| 20260503235942 | 55 | 298 | 3.5 | 5.2 | 0.00 | 0.00 | 0.00 | 47 | 1014.3 |
| 20260503235440 | 55 | 246 | 1.7 | 3.5 | 0.00 | 0.00 | 0.00 | 48 | 1014.4 |